Weather History for Wiscasset, ME

Change the Weather History Date:

Friday, March 7, 2014

  Actual Average Record
Temperature  
Mean Temperature 18 °F -  
Max Temperature 36 °F 35 °F 54 °F (2009)
Min Temperature 0 °F 18 °F -2 °F (2007)
Degree Days  
Heating Degree Days 47    
Moisture  
Dew Point 10 °F    
Average Humidity 69    
Maximum Humidity 89    
Minimum Humidity 32    
Precipitation  
Precipitation 0.00 in - - ()
Sea Level Pressure  
Sea Level Pressure 30.28 in    
Wind  
Wind Speed 2 mph (SSW)    
Max Wind Speed 10 mph    
Max Gust Speed -    
Visibility 10 miles    
Events      
Averages and records for this station are not official NWS values.
T = Trace of Precipitation, MM = Missing Value Source: NWS Daily Summary

Daily Weather History Graph

Daily Weather History Graph

Search for Another Location

Airport:

Trip Planner

Search our weather history database for the weather conditions in past years. The results will help you decide how hot, cold, wet, or windy it might be!

Date:

Astronomy

Mar. 07, 2014 Rise Set
Actual Time 6:05 AM EST 5:34 PM EST
Civil Twilight 5:36 AM EST 6:03 PM EST
Nautical Twilight 5:03 AM EST 6:37 PM EST
Astronomical Twilight 4:29 AM EST 7:10 PM EST
Moon 9:43 AM EST (3/7) No Moon Set
Length of Visible Light 12h 27m
Length of Day
11h 29m
Waxing Crescent, 42% of the Moon is Illuminated
Mar 7
Waxing Crescent
Mar 8
First Quarter
Mar 16
Full
Mar 23
Last Quarter
Mar 30
New

Hourly Weather History & Observations

Time (EST) Temp. Windchill Dew Point Humidity Pressure Visibility Wind Dir Wind Speed Gust Speed Precip Events Conditions
12:53 AM 3.9 °F - -0.9 °F 80% 30.51 in 10.0 mi Calm Calm - N/A   Clear
1:53 AM 3.0 °F - -2.0 °F 80% 30.49 in 10.0 mi Calm Calm - N/A   Clear
2:53 AM 1.9 °F - -2.9 °F 80% 30.47 in 10.0 mi Calm Calm - N/A   Clear
3:53 AM 1.0 °F - -5.1 °F 75% 30.47 in 10.0 mi Calm Calm - N/A   Clear
4:53 AM -0.9 °F - -6.0 °F 79% 30.45 in 10.0 mi Calm Calm - N/A   Clear
5:53 AM -0.9 °F - -6.0 °F 79% 30.43 in 10.0 mi Calm Calm - N/A   Clear
6:53 AM 1.9 °F - -0.9 °F 88% 30.42 in 8.0 mi Calm Calm - N/A   Clear
7:53 AM 14.0 °F - 8.1 °F 77% 30.42 in 10.0 mi Calm Calm - N/A   Clear
8:53 AM 26.1 °F 21.9 °F 3.9 °F 39% 30.40 in 10.0 mi Variable 3.5 mph - N/A   Clear
9:53 AM 28.9 °F 21.9 °F 1.9 °F 32% 30.39 in 10.0 mi Variable 6.9 mph - N/A   Clear
10:53 AM 32.0 °F 24.2 °F 12.0 °F 44% 30.36 in 10.0 mi South 9.2 mph - N/A   Clear
11:53 AM 34.0 °F 27.2 °F 16.0 °F 48% 30.32 in 10.0 mi SSW 8.1 mph - N/A   Clear
12:53 PM 36.0 °F 28.5 °F 18.0 °F 48% 30.29 in 10.0 mi South 10.4 mph - N/A   Clear
1:53 PM 35.1 °F 27.9 °F 19.0 °F 52% 30.25 in 10.0 mi SSW 9.2 mph - N/A   Clear
2:53 PM 35.1 °F 29.3 °F 19.9 °F 54% 30.22 in 10.0 mi SSW 6.9 mph - N/A   Clear
3:53 PM 34.0 °F 27.2 °F 21.9 °F 61% 30.17 in 10.0 mi South 8.1 mph - N/A   Clear
4:53 PM 33.1 °F 27.7 °F 21.9 °F 64% 30.16 in 10.0 mi SW 5.8 mph - N/A   Clear
5:53 PM 30.9 °F - 21.9 °F 69% 30.14 in 10.0 mi Calm Calm - N/A   Clear
6:53 PM 28.0 °F - 21.9 °F 78% 30.12 in 10.0 mi Calm Calm - N/A   Clear
7:53 PM 24.1 °F - 19.0 °F 81% 30.10 in 10.0 mi Calm Calm - N/A   Clear
8:53 PM 23.0 °F - 19.0 °F 85% 30.07 in 10.0 mi Calm Calm - N/A   Clear
9:53 PM 21.9 °F - 18.0 °F 85% 30.04 in 10.0 mi Calm Calm - N/A   Clear
10:53 PM 19.9 °F - 17.1 °F 89% 30.01 in 10.0 mi Calm Calm - N/A   Clear
11:53 PM 19.9 °F - 16.0 °F 85% 29.99 in 10.0 mi Calm Calm - N/A   Scattered Clouds